User: anonymous   Login
Location: Hurecourt
(47.9030°N, 6.0653°E)
Time: 12:44:30
(UTC+00:00)
Language:

Cosmos 1908 Rocket - Orbit

View from above orbital plane
View from above orbital plane
View from above satellite
View from above satellite

Ground track
Ground track

The orbit data is extracted from the following two-line orbital elements,

1 18749U 88001B   20274.99685441  .00000086  00000-0  76270-5 0  9998
2 18749  82.5116 258.7226 0017590 313.9912  98.5635 14.83228039768610
Epoch (UTC): 30 September 2020 23:55:28
Eccentricity: 0.0017590
inclination: 82.5116°
perigee height: 607 km
apogee height: 631 km
right ascension of ascending node: 258.7226°
argument of perigee: 313.9912°
revolutions per day: 14.83228039
mean anomaly at epoch: 98.5635°
orbit number at epoch: 76861

The dashed part of the orbit path shows where the satellite is in the earth's shadow,  

DLR